Other Public Products
Issued by NWS Grand Forks, ND

Home | Current Version | Previous Version | Text Only | Print | Product List | Glossary On
Versions: 1 2 3 4 5 6 7 8 9 10 11 12 13 14 15 16 17 18 19 20 21 22 23 24 25 26 27 28 29 30 31 32 33 34 35 36 37 38 39 40 41 42 43 44 45 46 47 48 49 50
000
FPUS83 KFGF 010131
OPUFGF
PRAIRIE TO PINES WEATHER ROUNDUP
NATIONAL WEATHER SERVICE EASTERN NORTH DAKOTA/GRAND FORKS ND
800 PM CDT TUE JUN 30 2015

 **SATELLITE DATA USED TO AUGMENT SKY COVER AT AUTOMATED STATIONS**
 *****  WEATHER ACROSS EASTERN NORTH DAKOTA  *****

CITY           SKY/WX    TMP DP  RH WIND       PRES   REMARKS
GRAND FORKS    CLOUDY    72  58  61 SE5       29.90F
GRAND FORKS AF CLOUDY    70  61  72 S5        29.91F
GRAND CITY NWS   N/A     72 N/A N/A SE5         N/A
BUXTON         NOT AVBL
DEVILS LAKE    CLOUDY    66  59  77 SE7       29.92R
FARGO          CLOUDY    71  63  75 E5        29.89F
WAHPETON ARPT  NOT AVBL
$$

 *****  WEATHER ACROSS CENTRAL AND WESTERN NORTH DAKOTA  *****

CITY           SKY/WX    TMP DP  RH WIND       PRES   REMARKS
JAMESTOWN      CLOUDY    69  60  73 E8        29.90S
BISMARCK       CLOUDY    71  63  75 E9        29.88F
MINOT          CLOUDY    67  63  87 CALM      29.91R FOG
MINOT AFB      LGT RAIN  66  66 100 NE7       29.90R FOG
GARRISON         N/A     67  63  87 NE10      29.89F
WILLISTON      MOSUNNY   68  58  70 E16G25    29.90R
DICKINSON      CLOUDY    70  59  68 E9        29.86R
HETTINGER      MOSUNNY   75  64  68 SE13      29.86S
$$

 *****  OTHER OBSERVATIONS NORTHEAST NORTH DAKOTA  *****

CITY           SKY/WX    TMP DP  RH WIND       PRES   REMARKS
WALHALLA       FAIR      72  64  78 MISG      29.91S
LANGDON        MOCLDY    70  63  78 E6        29.94R
CAVALIER       FAIR      72  63  73 SW3       29.91S
GRAFTON        FAIR      70  61  73 CALM      29.91S
CANDO          FAIR      66  63  88 SE6       29.92F
FORT TOTTEN    NOT AVBL
ROLLA          FAIR      66  63  88 S8        29.94R
RUGBY          NOT AVBL
 ***** THE ABOVE OBSERVATIONS ARE NON NWS ARE NOT QUALITY
        CONTROLLED AND MAY MIS-REPORT RAIN FOR SNOW...
$$

 *****  OTHER OBSERVATIONS SOUTHEAST NORTH DAKOTA *****

CITY           SKY/WX    TMP DP  RH WIND       PRES   REMARKS
COOPERSTOWN    NOT AVBL
VALLEY CITY    FAIR      68  61  77 E7        29.91S
OAKES            N/A     70  63  78 E10       29.89R
GWINNER        NOT AVBL
SHEYENNE NWR     N/A     69  63  81 SE3       29.95S
BUFFALO        NOT AVBL
WYNDMERE       NOT AVBL
 ***** THE ABOVE OBSERVATIONS ARE NON NWS ARE NOT QUALITY
       CONTROLLED AND MAY MIS-REPORT RAIN FOR SNOW...
$$

  *****  WEATHER ACROSS NORTHERN MINNESOTA  *****

CITY           SKY/WX    TMP DP  RH WIND       PRES   REMARKS
FLAG ISLAND    PTSUNNY   70  52  52 CALM      29.93S
WARROAD        PTSUNNY   68  55  64 E5        29.94S
ROSEAU         PTSUNNY   68  59  73 E5        29.93S
HALLOCK        PTSUNNY   73  61  64 SW3       29.90S
THF RVR FALLS  PTSUNNY   70  59  68 CALM      29.93S
HALSTAD        NOT AVBL
FOSSTON        CLOUDY    66  54  63 CALM      29.94S
BAUDETTE       PTSUNNY   68  57  68 NE5       29.94S
WASKISH        MOSUNNY   70  55  60 CALM      29.93S
CROOKSTON      CLOUDY    72  57  60 CALM      29.92S
$$
  *****  WEATHER ACROSS CENTRAL AND WEST MINNESOTA  *****

CITY           SKY/WX    TMP DP  RH WIND       PRES   REMARKS
BEMIDJI        PTSUNNY   67  55  64 E3        29.93S
PARK RAPIDS    PTSUNNY   74  54  49 CALM      29.93S
WADENA           N/A     72  57  60 CALM      29.93S
DETROIT LAKES  PTSUNNY   70  55  60 NE3       29.93F
MOORHEAD       CLOUDY    72  63  73 CALM      29.90F
FERGUS FALLS   PTSUNNY   70  63  78 CALM      29.91S
ELBOW LAKE     FAIR      69  62  81 W3        29.92S
MORRIS MN      CLOUDY    72  63  73 CALM      29.92S
STAPLES        PTSUNNY   70  54  56 CALM      29.94R
WHEATON        PTSUNNY   66  61  82 SE3       29.93F
$$
  *****  WEATHER ELSEWHERE ACROSS MINNESOTA  *****

CITY           SKY/WX    TMP DP  RH WIND       PRES   REMARKS
DULUTH         MOCLDY    57  46  66 SE6       29.97R
INTRNTL FALLS  PTSUNNY   65  54  67 CALM      29.95S
ELY            MOCLDY    64  45  48 CALM      29.96R
CLOQUET        MOCLDY    57  46  67 E5        29.97S
BRAINERD       MOSUNNY   71  56  58 SE5       29.93R
HIBBING        MOCLDY    69  51  52 N5        29.95R
ALEXANDRIA     CLOUDY    71  57  61 SE5       29.95R
SAINT CLOUD    MOCLDY    69  59  70 E3        29.93R
MINNEAPOLIS    MOCLDY    72  52  49 NE7       29.92R
$$

  *****  WEATHER ACROSS SOUTH DAKOTA  *****

CITY           SKY/WX    TMP DP  RH WIND       PRES   REMARKS
SIOUX FALLS    LGT RAIN  70  66  87 CALM      29.90S
BROOKINGS      CLOUDY    70  61  73 SE8       29.93S
WATERTOWN      PTSUNNY   71  61  70 SE7       29.92R
HURON          CLOUDY    71  70  96 E6        29.86F FOG
SISSETON         N/A     72  59  63 SE7       29.90S
ABERDEEN       PTSUNNY   74  64  71 SE6       29.86F
MITCHELL       LGT RAIN  70  68  93 E5        29.88F
PIERRE         CLOUDY    73  66  78 SE13      29.82F
MOBRIDGE       MOSUNNY   72  65  78 E12       29.85S
RAPID CITY     SUNNY     82  66  58 NE5       29.89S
$$

  *****  SOME WEATHER IN NEARBY STATES *****

CITY           SKY/WX    TMP DP  RH WIND       PRES   REMARKS
GLASGOW MT     NOT AVBL
GREAT FALLS MT SUNNY     90  41  18 NW14      29.96R
CHEYENNE WY    PTSUNNY   70  54  56 SW12      30.09F
SCOTTSBLUFF NE MOSUNNY   90  57  32 N10       29.91R
OMAHA NE       CLOUDY    75  66  73 CALM      29.89R
DES MOINES IA  CLOUDY    77  64  64 CALM      29.88S
DAVENPORT IA   MOCLDY    73  63  70 NE7       29.87R
CHICAGO IL     PTCLDY    64  57  78 NE10      29.87R
EAU CLAIRE WI  PTCLDY    68  50  52 NE8       29.93R
LA CROSSE WI   CLEAR     72  53  51 N8        29.90R
$$

  *****  SOME NATIONAL WEATHER *****

CITY           SKY/WX    TMP DP  RH WIND       PRES   REMARKS
LA GUARDIA NY  MOCLDY    76  66  71 SE10G18   29.88S
RALEIGH NC     CLOUDY    74  71  91 CALM      29.90F
ATLANTA GA     MOCLDY    80  63  55 W10       29.99R
NEW ORLEANS LA CLOUDY    78  67  68 W8        30.06R
OKLAHOMA CITY  MOCLDY    87  69  54 S6        29.92S HX  91
ALBUQUERQUE NM MOSUNNY   92  46  20 W8        30.05F
SALT LAKE CITY PTSUNNY   99  48  17 N7        29.95S HX  95
LOS ANGELES CA CLOUDY    75  64  68 NW5       29.85F
BOISE ID       SUNNY    100  43  14 NW13G21   29.88F HX  96
SEATTLE WA     MOSUNNY   86  58  38 NW8       30.03F
$$

*** WEATHER ACROSS MANITOBA...SASKATCHEWAN AND ONTARIO ***
                ***ONTARIO***

CITY           SKY/WX    TMP DP  RH WIND       PRES   REMARKS
GERALDTON      PTCLDY    61  41  48 NE6       29.97S
THUNDER BAY    NOT AVBL
SIOUX LOOKOUT  NOT AVBL
TORONTO        CLOUDY    63  59  88 E5        29.76S
BIG TROUT LK   SUNNY     64  41  42 S3        29.93F
PICKLE LAKE    PTCLDY    64  41  42 NE3       29.94F
DRYDEN         SUNNY     64  50  59 E3        29.96F
KENORA         NOT AVBL
$$
                *** MANITOBA***

CITY           SKY/WX    TMP DP  RH WIND       PRES   REMARKS
BRANDON        NOT AVBL
DAUPHIN        SUNNY     70  61  73 SE6       29.91S
ISLAND LAKE    PTSUNNY   66  48  52 NW2       29.91S
PILOT MOUND      N/A     68  63  83 E5          N/A
THE PAS        CLOUDY    77  57  50 SW5       29.84F
THOMPSON       PTSUNNY   66  57  72 CALM      29.88S
WINNIPEG       NOT AVBL
LYNN LAKE        N/A    N/A N/A N/A MISG        N/A
CHURCHILL      MOSUNNY   63 N/A N/A E12         N/A
GILLAM         PTSUNNY   66  50  55 SE5       29.86
$$
                ***SASKATCHEWAN***

CITY           SKY/WX    TMP DP  RH WIND       PRES   REMARKS
ESTEVAN        LGT RAIN  68  64  88 CALM      29.92S SMOKE
KINDERSLEY     MOSUNNY   70  57  64 NE7       29.97R SMOKE
LLOYDMINSTER   CLOUDY    72  57  60 W9        29.96  SMOKE
PRINCE ALBERT    N/A     72  66  83 SW5       29.88S SMOKE
REGINA         CLOUDY    64  61  88 S2        29.93S SMOKE



USA.gov is the U.S. government's official web portal to all federal, state and local government web resources and services.